GW0850 Weather Reports


time (UTC)temp
F
wind
direction
speed
knots
gust
knots
rain 1hr
in
rain 24hr
in
rain mn
in
humidity
%
barometer
mb
20260906172540 82 73 2.6 2.6 0.00 0.00 0.00 74 1017.6
20260906171536 83 54 2.6 4.3 0.00 0.00 0.00 73 1017.8
20260906170533 82 41 0.0 4.3 0.00 0.00 0.00 74 1017.5
20260906165529 82 41 1.7 4.3 0.00 0.00 0.00 74 1017.6
20260906164528 83 49 0.0 2.6 0.00 0.00 0.00 73 1017.4
20260906163525 83 91 1.7 1.7 0.00 0.00 0.00 73 1017.2
20260906162523 83 39 1.7 3.5 0.00 0.00 0.00 71 1017.4
20260906161520 83 34 0.9 4.3 0.00 0.00 0.00 71 1017.5
20260906160517 83 61 0.0 2.6 0.00 0.00 0.00 72 1017.5
20260906155514 81 25 1.7 2.6 0.00 0.00 0.00 74 1018.0
20260906154511 80 60 1.7 4.3 0.00 0.00 0.00 77 1018.0
20260906153508 79 35 0.9 3.5 0.00 0.00 0.00 77 1017.8
20260906152504 79 40 0.0 2.6 0.00 0.00 0.00 77 1017.8
20260906151459 79 28 0.0 2.6 0.00 0.00 0.00 78 1018.1
20260906150456 78 40 0.0 1.7 0.00 0.00 0.00 79 1018.0
20260906145455 78 55 0.9 2.6 0.00 0.00 0.00 80 1017.7
20260906144450 77 28 0.0 2.6 0.00 0.00 0.00 80 1018.2
20260906143446 78 46 0.0 4.3 0.00 0.00 0.00 79 1017.7
20260906142442 77 68 1.7 2.6 0.00 0.00 0.00 79 1018.1
20260906141443 77 28 1.7 4.3 0.00 0.00 0.00 80 1018.2
20260906140438 77 60 1.7 2.6 0.00 0.00 0.00 81 1018.1
20260906135435 76 91 1.7 2.6 0.00 0.00 0.00 82 1018.0
20260906134432 75 40 0.0 2.6 0.00 0.00 0.00 84 1017.8
20260906133428 74 39 0.0 1.7 0.00 0.00 0.00 85 1018.1
20260906132425 74 77 0.0 1.7 0.00 0.00 0.00 85 1018.1
20260906131421 74 74 0.9 1.7 0.00 0.00 0.00 86 1018.1
20260906130416 73 52 1.7 2.6 0.00 0.00 0.00 86 1017.8
20260906125414 73 35 0.0 0.9 0.00 0.00 0.00 87 1018.1
20260906124410 73 60 0.0 1.7 0.00 0.00 0.00 87 1018.0
20260906123409 72 12 0.0 0.9 0.00 0.00 0.00 88 1017.6
20260906122410 72 35 0.0 1.7 0.00 0.00 0.00 88 1017.5
20260906121408 72 35 0.0 1.7 0.00 0.00 0.00 88 1017.3
20260906120406 71 43 0.9 1.7 0.00 0.00 0.00 88 1017.4
20260906115403 71 20 0.0 1.7 0.00 0.00 0.00 88 1017.2
20260906114403 71 48 1.7 1.7 0.00 0.00 0.00 88 1016.9
20260906113403 71 74 0.9 2.6 0.00 0.00 0.00 89 1016.7
20260906112401 71 38 0.0 2.6 0.00 0.00 0.00 89 1016.7
20260906111401 71 52 0.0 2.6 0.00 0.00 0.00 89 1016.7
20260906110357 71 43 0.0 1.7 0.00 0.00 0.00 90 1016.9
20260906105352 71 43 0.9 0.9 0.00 0.00 0.00 90 1016.9
20260906104352 71 68 1.7 2.6 0.00 0.00 0.00 90 1016.9
20260906103349 71 27 0.0 1.7 0.00 0.00 0.00 90 1017.0
20260906102344 71 40 0.0 0.9 0.00 0.00 0.00 90 1017.2
20260906101341 71 56 0.0 2.6 0.00 0.00 0.00 90 1017.0
20260906100335 71 35 0.0 1.7 0.00 0.00 0.00 90 1016.8
20260906095332 72 73 0.0 3.5 0.00 0.00 0.00 90 1016.9
20260906094332 72 37 0.0 2.6 0.00 0.00 0.00 90 1016.9
20260906093330 72 55 0.9 2.6 0.00 0.00 0.00 89 1016.6
20260906092325 72 12 0.0 2.6 0.00 0.00 0.00 89 1016.7
20260906091323 73 56 1.7 1.7 0.00 0.00 0.00 88 1016.5
20260906090318 73 80 0.0 2.6 0.00 0.00 0.00 87 1016.6
20260906085317 74 35 0.0 2.6 0.00 0.00 0.00 85 1016.2
20260906084312 74 46 0.0 0.9 0.00 0.00 0.00 85 1016.1
20260906083308 74 27 0.0 2.6 0.00 0.00 0.00 85 1016.3
20260906082306 74 12 0.0 0.0 0.00 0.00 0.00 85 1016.3
20260906081301 74 28 0.0 2.6 0.00 0.00 0.00 84 1016.3
20260906080259 75 49 0.0 2.6 0.00 0.00 0.00 84 1016.3
20260906075258 75 104 0.0 4.3 0.00 0.00 0.00 84 1016.3
20260906074253 75 34 0.0 2.6 0.00 0.00 0.00 84 1016.2
20260906073253 75 90 4.3 4.3 0.00 0.00 0.00 84 1016.1
20260906072250 75 51 3.5 3.5 0.00 0.00 0.00 84 1016.4
20260906071246 76 25 0.9 1.7 0.00 0.00 0.00 85 1016.2
20260906070244 76 36 3.5 3.5 0.00 0.00 0.00 85 1016.4
20260906065239 76 68 1.7 2.6 0.00 0.00 0.00 85 1016.3
20260906064236 77 37 1.7 2.6 0.00 0.00 0.00 85 1016.4
20260906063232 77 36 1.7 2.6 0.00 0.00 0.00 86 1016.4
20260906062232 77 65 1.7 3.5 0.00 0.00 0.00 86 1016.5
20260906061231 77 35 0.9 1.7 0.00 0.00 0.00 86 1016.2
20260906060229 77 20 0.0 0.9 0.00 0.00 0.00 86 1016.2
20260906055225 77 20 0.0 2.6 0.00 0.00 0.00 87 1016.2
20260906054221 78 89 0.0 0.9 0.00 0.00 0.00 86 1016.2
20260906053219 78 41 1.7 1.7 0.00 0.00 0.00 86 1016.2
20260906052217 78 28 0.0 1.7 0.00 0.00 0.00 86 1016.3
20260906051213 78 31 1.7 3.5 0.00 0.00 0.00 85 1016.2
20260906050209 79 43 0.9 2.6 0.00 0.00 0.00 85 1016.5
20260906045208 79 26 0.0 1.7 0.00 0.00 0.00 85 1016.3
20260906044206 79 28 1.7 1.7 0.00 0.00 0.00 84 1016.2
20260906043203 80 28 0.0 2.6 0.00 0.00 0.00 83 1016.2
20260906042202 80 20 0.0 1.7 0.00 0.00 0.00 83 1016.0
20260906041159 80 20 0.0 1.7 0.00 0.00 0.00 82 1015.8
20260906040155 80 40 0.9 1.7 0.00 0.00 0.00 81 1015.9
20260906035152 81 43 0.0 0.9 0.00 0.00 0.00 81 1015.8
20260906034147 81 43 0.0 1.7 0.00 0.00 0.00 80 1015.6
20260906033143 81 49 0.0 1.7 0.00 0.00 0.00 80 1015.9
20260906032139 81 43 0.0 0.9 0.00 0.00 0.00 80 1015.7
20260906031136 81 40 0.0 0.0 0.00 0.00 0.00 80 1015.8
20260906030131 81 46 0.0 0.9 0.00 0.00 0.00 80 1015.7
20260906025129 82 43 0.9 0.9 0.00 0.00 0.00 79 1015.5
20260906024124 82 43 0.0 0.9 0.00 0.00 0.00 78 1015.6
20260906023120 82 88 0.0 0.0 0.00 0.00 0.00 77 1015.3
20260906022117 82 12 0.0 0.0 0.00 0.00 0.00 77 1015.2
20260906021117 82 110 0.0 0.0 0.00 0.00 0.00 77 1014.9
20260906020118 82 110 0.0 0.0 0.00 0.00 0.00 77 1014.6
20260906015116 83 110 0.0 0.0 0.00 0.00 0.00 76 1014.7
20260906014114 83 35 0.0 1.7 0.00 0.00 0.00 75 1014.6
20260906013109 84 43 0.0 0.0 0.00 0.00 0.00 75 1014.5
20260906012104 84 43 0.0 0.0 0.00 0.00 0.00 74 1014.5
20260906011100 84 94 0.0 0.0 0.00 0.00 0.00 74 1014.4
20260906010058 84 101 0.0 0.9 0.00 0.00 0.00 74 1014.5
20260906005056 85 36 0.0 0.0 0.00 0.00 0.00 73 1014.4
20260906004057 86 35 0.0 0.0 0.00 0.00 0.00 72 1014.4
20260906003054 86 95 0.0 0.9 0.00 0.00 0.00 71 1014.0
20260906002049 87 20 0.0 2.6 0.00 0.00 0.00 69 1013.9
20260906001044 87 27 0.0 1.7 0.00 0.00 0.00 68 1014.1
20260906000041 88 49 0.0 0.9 0.00 0.00 0.00 69 1014.1
20260905235042 88 49 0.0 2.6 0.00 0.00 0.00 68 1013.8
20260905234038 88 35 0.0 1.7 0.00 0.00 0.00 67 1013.8
20260905233038 88 28 0.0 2.6 0.00 0.00 0.00 66 1014.0
20260905232035 89 46 2.6 3.5 0.00 0.00 0.00 65 1014.1
20260905231032 89 25 1.7 3.5 0.00 0.00 0.00 65 1014.0
20260905230030 89 25 3.5 3.5 0.00 0.00 0.00 65 1014.0
20260905225026 90 43 0.0 3.5 0.00 0.00 0.00 64 1013.9
20260905224026 91 49 0.9 1.7 0.00 0.00 0.00 64 1013.8
20260905223025 90 101 0.9 2.6 0.00 0.00 0.00 64 1014.1
20260905222020 90 61 1.7 3.5 0.00 0.00 0.00 63 1013.8
20260905221018 91 39 1.7 3.5 0.00 0.00 0.00 61 1014.0
20260905220015 91 20 1.7 3.5 0.00 0.00 0.00 62 1013.9
20260905215011 91 27 0.9 2.6 0.00 0.00 0.00 62 1013.8
20260905214007 90 80 1.7 2.6 0.00 0.00 0.00 64 1014.2
20260905213003 90 6 0.9 2.6 0.00 0.00 0.00 64 1014.1
20260905212003 90 126 0.9 1.7 0.00 0.00 0.00 63 1014.4
20260905211001 91 55 0.9 2.6 0.00 0.00 0.00 62 1014.2
20260905205955 91 121 0.0 3.5 0.00 0.00 0.00 62 1014.0
20260905204955 91 57 1.7 2.6 0.00 0.00 0.00 63 1013.9
20260905203956 91 27 0.9 4.3 0.00 0.00 0.00 61 1013.8
20260905202953 91 299 0.9 2.6 0.00 0.00 0.00 63 1013.8
20260905201949 90 37 2.6 3.5 0.00 0.00 0.00 63 1013.9
20260905200949 90 34 0.0 2.6 0.00 0.00 0.00 65 1014.2
20260905195944 91 31 2.6 3.5 0.00 0.00 0.00 64 1014.5
20260905194941 90 34 0.9 2.6 0.00 0.00 0.00 68 1014.5
20260905193940 90 67 6.1 6.1 0.00 0.00 0.00 67 1014.9
20260905192935 88 186 0.9 3.5 0.00 0.00 0.00 69 1014.7
20260905191932 89 42 3.5 6.1 0.00 0.00 0.00 69 1015.1
20260905190931 89 241 1.7 3.5 0.00 0.00 0.00 69 1015.3
20260905185927 89 92 2.6 4.3 0.00 0.00 0.00 69 1015.6
20260905184927 88 110 2.6 2.6 0.00 0.00 0.00 69 1015.9
20260905183927 88 123 0.9 4.3 0.00 0.00 0.00 70 1015.7
20260905182923 87 15 1.7 3.5 0.00 0.00 0.00 70 1015.8
20260905181923 87 252 1.7 1.7 0.00 0.00 0.00 71 1016.0
20260905180923 86 68 1.7 2.6 0.00 0.00 0.00 72 1015.8
20260905175918 87 69 3.5 7.0 0.00 0.00 0.00 70 1016.1
20260905174918 87 67 2.6 3.5 0.00 0.00 0.00 72 1016.1
20260905173915 87 16 0.0 3.5 0.00 0.00 0.00 72 1016.3
20260905172912 87 20 0.9 6.1 0.00 0.00 0.00 72 1016.1